Wind_Speed
67 62 60 64 62 55 52 49 47 46 45 51 52 53 50 48 42 43 44 46 47 45 44 51 57 60 58 53 49 45 43 44 44 46 50 54 60 56 56 59 55 56 63
73 68 57 69 63 60 53 51 48 52 52 56 57 55 49 46 45 48 51 52 50 50 52 53 54 61 62 59 52 50 51 48 51 53 53 53 59 62 62 62 61 62 67
75 70 62 74 65 62 61 57 53 56 54 54 53 50 46 47 53 55 56 55 54 55 59 56 57 57 64 64 60 55 55 57 59 64 59 57 57 63 67 68 70 72 70
76 71 66 67 71 69 66 62 58 59 55 54 55 55 54 55 58 61 63 61 56 60 60 65 57 58 61 65 66 58 57 58 61 65 66 66 65 65 64 72 77 80 82
80 75 75 72 79 78 72 70 67 66 61 59 60 62 61 60 61 64 64 58 61 61 67 65 68 65 63 63 68 64 60 63 63 63 69 71 74 78 79 76 78 83 87
84 80 81 79 78 85 78 79 77 73 65 61 60 63 61 59 59 61 60 64 62 65 70 71 70 70 65 64 69 67 68 68 66 70 74 78 78 84 85 84 86 91 91
90 84 84 86 80 84 79 80 77 72 68 64 64 66 65 60 57 62 64 64 65 71 72 73 73 73 64 64 69 72 72 71 70 72 76 78 84 88 90 97 97 96 97
94 89 89 92 80 83 82 81 81 80 77 75 72 73 71 69 66 65 68 69 73 78 78 77 76 76 65 67 70 74 78 74 75 73 78 76 84 91 96 101 103 104 106
103 96 97 93 88 89 87 82 80 81 80 77 77 76 75 74 72 70 76 79 79 82 80 76 77 73 67 71 73 75 76 77 81 77 79 81 85 92 97 102 108 113 112
108 106 103 98 96 95 95 92 84 82 81 79 81 81 81 81 81 81 81 81 84 82 82 80 78 71 72 74 76 79 79 79 83 82 82 84 87 93 98 104 110 117 124
111 109 107 105 102 101 98 98 94 88 85 85 82 80 80 80 80 79 81 83 86 85 84 82 78 79 78 78 77 80 81 83 81 87 88 89 95 100 101 104 110 117 127
116 116 113 108 107 105 104 103 99 97 94 93 88 85 84 85 87 87 89 89 91 87 84 84 82 80 80 82 80 81 86 84 85 90 90 93 99 104 106 109 115 123 132
109 115 113 115 111 105 102 102 102 98 96 96 94 93 91 92 93 94 94 92 87 89 86 88 84 83 84 87 83 83 83 84 88 92 95 95 101 104 105 110 118 125 132
116 117 107 105 110 114 110 103 101 98 98 98 98 97 97 97 97 95 90 87 88 89 86 84 82 85 92 87 85 83 82 84 90 95 96 100 103 104 105 112 120 125 130
120 122 113 105 106 106 106 106 105 100 97 97 97 96 97 96 94 92 89 88 88 82 82 85 89 93 90 85 83 87 84 86 92 96 98 100 104 105 108 116 119 123 124
111 119 116 115 110 108 107 107 107 105 102 99 96 95 93 91 90 89 88 88 84 78 83 88 90 90 87 85 86 89 84 88 93 96 99 103 105 106 112 118 120 132 115
102 103 108 111 113 113 111 108 108 106 108 106 103 100 98 93 88 85 85 86 83 84 87 90 93 90 86 90 88 86 87 89 92 95 99 106 105 109 116 120 126 128 113
98 98 92 94 95 99 100 99 97 96 96 94 95 96 92 90 84 81 84 85 84 87 91 93 94 89 88 89 89 89 87 89 92 95 101 106 106 112 118 120 126 124 102
100 96 85 86 89 88 88 86 80 80 80 81 81 82 83 84 85 84 86 86 86 85 92 94 91 94 93 90 89 86 88 90 91 98 101 103 107 113 113 122 121 112 89
99 98 90 89 90 88 85 84 80 81 80 81 81 83 82 81 80 84 88 90 91 93 97 97 95 92 94 96 88 90 89 91 96 99 104 106 111 114 119 118 111 92 83
99 98 93 95 91 86 85 85 84 85 84 88 87 84 83 82 80 78 78 84 88 92 96 94 93 97 97 95 94 90 91 94 98 105 105 108 113 116 111 110 104 85 74
99 99 99 97 92 92 88 86 87 88 89 88 87 84 83 80 77 74 81 85 90 93 92 90 95 96 94 95 91 92 94 98 103 104 106 112 116 119 110 103 85 74 64
95 96 94 94 88 89 87 87 86 83 81 79 76 77 74 73 73 77 80 84 84 87 91 94 91 93 94 93 93 95 98 102 101 106 111 113 114 115 107 94 81 65 58
87 88 87 85 81 79 78 75 69 65 63 61 63 67 70 70 73 76 78 82 86 89 89 89 93 95 93 92 93 98 100 101 106 108 115 114 115 112 99 86 72 59 53
78 79 80 74 71 70 67 65 61 53 51 55 53 55 60 67 71 73 76 81 82 85 89 92 95 91 91 94 98 102 101 103 108 113 114 112 109 101 85 71 63 54 48
74 74 65 67 61 59 59 56 56 51 52 54 59 63 70 71 74 78 84 86 87 91 93 94 89 91 96 97 102 105 104 107 112 115 117 117 106 91 76 70 61 52 46
Wind_Direction
262 264 269 273 274 276 277 279 278 280 280 283 288 290 293 291 296 304 306 307 313 320 323 312 306 302 304 308 312 310 310 309 304 302 303 300 297 297 302 305 305 299 297
263 263 266 271 273 274 272 276 276 279 282 282 285 287 287 283 294 300 302 304 308 316 322 323 306 305 302 304 306 305 305 300 302 302 298 300 299 297 297 300 300 301 298
264 265 267 271 273 274 271 273 273 276 279 277 281 285 285 285 290 294 297 300 302 312 316 323 322 309 303 301 304 304 300 300 300 303 301 300 300 298 296 294 297 299 298
263 266 266 268 272 269 270 271 270 272 275 276 278 282 283 285 288 290 293 294 300 306 315 320 319 317 305 300 302 303 298 298 303 299 302 303 301 297 294 296 301 304 300
260 262 266 264 270 271 271 274 272 272 274 277 278 280 282 285 287 287 288 289 296 303 312 318 317 319 319 305 302 297 296 297 303 302 299 303 302 303 302 300 301 302 302
256 259 264 263 265 270 271 272 272 274 275 278 280 282 284 282 282 284 285 288 292 302 312 315 317 318 316 307 300 296 296 303 303 301 300 303 302 301 303 306 298 298 303
256 255 259 264 263 268 271 272 273 274 275 275 277 278 280 282 284 284 286 287 292 301 309 312 314 315 309 307 300 295 295 300 301 300 301 303 304 303 304 304 302 300 302
258 257 258 259 259 263 267 268 271 273 274 275 274 276 277 279 282 282 283 288 293 299 304 308 311 313 308 300 300 294 292 297 301 298 300 306 303 304 303 303 304 303 303
259 256 260 262 264 265 267 268 272 273 274 275 274 276 278 280 281 283 286 290 293 296 302 307 309 309 304 303 301 297 294 295 299 297 301 303 303 306 304 304 303 305 305
258 261 260 262 264 265 269 269 269 271 272 272 273 276 279 281 283 286 287 290 293 297 301 306 306 301 299 303 299 295 295 293 297 297 299 303 306 308 306 306 305 306 307
255 259 262 262 264 266 269 271 273 272 273 272 273 276 278 280 282 286 288 290 295 298 302 303 300 300 298 300 299 296 295 295 296 296 299 303 307 309 308 309 310 307 308
253 254 258 262 265 266 267 270 272 273 274 274 275 276 278 280 283 285 287 290 292 296 298 301 297 294 293 298 298 298 297 295 294 295 300 304 308 308 306 307 307 306 308
252 253 254 257 261 262 264 268 270 271 272 273 275 276 278 280 281 284 286 290 291 294 298 298 294 287 290 297 298 300 298 294 293 296 299 303 307 307 308 307 306 308 311
256 257 253 255 256 259 262 264 266 267 269 271 273 275 278 280 282 284 286 287 290 293 295 293 286 285 294 296 299 298 297 293 294 296 299 304 306 307 308 309 308 311 310
252 257 255 256 257 258 259 261 263 265 268 271 274 277 279 280 281 281 284 286 288 289 289 285 287 290 294 296 298 297 296 291 295 297 301 304 306 306 310 310 314 314 313
254 254 255 255 257 260 261 262 263 264 267 271 272 274 276 277 279 281 283 284 287 284 283 287 288 291 295 295 293 295 294 294 296 299 302 305 307 310 310 312 314 313 314
255 255 254 255 258 260 261 263 265 267 269 270 271 273 274 275 278 281 282 283 284 281 285 284 288 292 292 292 293 294 295 296 296 299 303 305 309 309 309 312 312 314 313
256 256 256 255 256 258 260 261 263 266 267 269 269 270 271 272 271 275 277 277 280 282 284 284 288 291 292 293 295 296 296 296 297 301 303 307 310 308 310 312 314 313 314
256 257 255 256 257 257 259 262 263 264 266 267 269 270 270 270 270 268 270 275 277 281 282 285 286 288 290 292 294 296 296 298 299 299 306 308 308 309 311 311 316 316 314
255 257 257 256 257 258 259 260 263 265 268 269 269 269 270 271 272 270 268 272 278 279 278 282 285 289 289 292 294 295 298 298 299 304 307 309 309 310 312 312 314 314 313
256 257 259 260 260 260 259 262 265 267 269 269 269 268 268 269 271 271 271 272 274 276 278 282 282 285 290 291 294 295 296 297 301 304 308 306 307 311 314 316 314 313 309
255 258 259 261 265 267 270 269 269 269 268 268 268 267 268 268 269 269 269 271 273 276 279 281 283 287 288 291 294 296 296 298 302 305 305 305 308 311 312 316 314 312 302
255 256 257 262 264 266 269 269 270 269 268 265 263 264 265 264 266 268 271 272 275 277 277 281 283 285 288 292 294 295 297 300 303 304 305 307 308 312 314 313 310 307 296
261 260 261 261 262 262 263 264 263 262 259 258 258 261 264 265 265 267 270 271 272 274 278 279 281 285 289 291 294 296 297 300 302 305 304 306 310 313 314 310 308 302 291
258 260 262 258 257 256 256 259 259 253 247 252 258 261 262 263 266 267 267 268 271 274 275 280 284 287 288 291 294 296 297 299 300 303 305 310 313 315 314 310 306 300 288
253 256 259 262 259 255 254 253 252 247 251 253 253 257 258 264 264 266 268 268 271 275 278 282 285 287 287 291 293 297 297 300 301 303 307 310 311 314 312 310 305 297 287
Height
10771 10776 10779 10773 10775 10777 10775 10786 10783 10785 10786 10784 10784 10785 10783 10780 10776 10775 10773 10770 10767 10763 10759 10755 10749 10747 10742 10738 10733 10728 10725 10719 10716 10714 10710 10706 10699 10695 10691 10688 10684 10680 10676
10756 10761 10770 10757 10762 10765 10766 10769 10773 10770 10777 10775 10775 10775 10775 10772 10768 10764 10761 10760 10758 10754 10750 10745 10740 10735 10731 10726 10722 10717 10713 10708 10702 10700 10698 10697 10692 10685 10682 10677 10673 10667 10660
10740 10747 10758 10742 10752 10753 10753 10758 10762 10756 10763 10764 10765 10765 10765 10763 10760 10758 10752 10748 10747 10744 10740 10737 10732 10726 10720 10717 10712 10707 10702 10697 10689 10684 10682 10682 10679 10675 10667 10662 10657 10653 10647
10726 10732 10742 10740 10733 10735 10740 10748 10748 10745 10750 10752 10753 10755 10756 10753 10750 10747 10744 10738 10735 10731 10729 10724 10720 10716 10710 10705 10700 10695 10690 10686 10681 10672 10664 10661 10660 10658 10660 10647 10639 10632 10627
10713 10720 10716 10730 10716 10718 10726 10730 10733 10731 10738 10740 10741 10742 10743 10743 10740 10735 10732 10727 10724 10719 10715 10712 10707 10703 10699 10694 10688 10682 10676 10670 10666 10659 10652 10646 10639 10632 10629 10635 10621 10614 10604
10697 10705 10701 10709 10714 10698 10713 10710 10716 10717 10724 10727 10728 10727 10729 10729 10726 10722 10720 10716 10711 10708 10703 10698 10694 10689 10684 10680 10675 10669 10662 10656 10651 10644 10637 10631 10625 10615 10607 10605 10599 10595 10586
10679 10692 10691 10684 10701 10684 10698 10695 10698 10706 10708 10712 10714 10712 10714 10716 10713 10708 10705 10703 10699 10693 10690 10684 10680 10675 10669 10665 10661 10655 10648 10642 10636 10629 10622 10614 10606 10596 10587 10580 10577 10568 10563
10664 10677 10673 10664 10684 10674 10681 10683 10683 10690 10695 10698 10700 10698 10699 10700 10698 10695 10691 10688 10685 10681 10676 10671 10665 10661 10656 10652 10646 10640 10633 10627 10620 10614 10606 10598 10588 10577 10565 10552 10541 10541 10534
10638 10653 10649 10654 10665 10661 10661 10667 10671 10675 10678 10682 10681 10682 10684 10683 10681 10679 10676 10673 10670 10666 10661 10656 10651 10647 10641 10636 10630 10624 10616 10610 10603 10597 10589 10580 10569 10559 10545 10531 10514 10500 10503
10621 10626 10634 10640 10642 10645 10642 10645 10657 10660 10660 10664 10664 10666 10667 10667 10664 10664 10661 10657 10653 10649 10644 10639 10635 10630 10625 10619 10613 10606 10600 10593 10586 10578 10571 10560 10550 10539 10525 10511 10495 10475 10463
10609 10606 10611 10619 10626 10629 10627 10622 10633 10642 10644 10644 10648 10650 10651 10650 10648 10647 10643 10640 10637 10631 10626 10621 10617 10613 10607 10601 10595 10588 10581 10575 10569 10560 10552 10541 10530 10519 10506 10492 10477 10459 10438
10587 10589 10593 10598 10606 10612 10610 10607 10611 10618 10624 10623 10631 10632 10633 10633 10631 10629 10627 10623 10619 10615 10610 10605 10599 10594 10588 10583 10577 10571 10564 10559 10551 10542 10533 10523 10513 10500 10487 10474 10459 10440 10418
10561 10555 10581 10584 10590 10589 10590 10589 10590 10600 10602 10604 10610 10612 10613 10613 10612 10611 10608 10607 10602 10597 10594 10589 10583 10577 10571 10565 10560 10554 10547 10541 10534 10525 10516 10505 10495 10483 10471 10456 10437 10417 10395
10532 10523 10559 10569 10568 10568 10569 10571 10569 10578 10583 10585 10588 10592 10593 10592 10592 10590 10589 10586 10581 10578 10575 10570 10565 10559 10553 10547 10542 10536 10530 10523 10515 10506 10497 10487 10476 10464 10449 10432 10413 10396 10372
10516 10502 10531 10545 10541 10545 10548 10549 10549 10556 10563 10566 10568 10569 10570 10571 10570 10569 10570 10565 10562 10560 10556 10550 10546 10540 10534 10527 10522 10517 10511 10504 10496 10486 10477 10467 10455 10440 10425 10409 10389 10370 10349
10490 10488 10505 10513 10521 10521 10523 10526 10530 10537 10543 10547 10551 10550 10550 10549 10549 10549 10548 10545 10543 10541 10535 10530 10525 10520 10514 10509 10504 10498 10491 10486 10479 10468 10456 10446 10434 10419 10401 10383 10365 10349 10330
10459 10470 10479 10488 10495 10496 10498 10504 10511 10520 10521 10528 10529 10530 10528 10528 10529 10530 10526 10524 10524 10520 10515 10510 10505 10501 10495 10490 10484 10479 10474 10466 10458 10449 10440 10426 10414 10401 10383 10362 10342 10327 10306
10431 10439 10457 10463 10468 10468 10476 10487 10496 10503 10500 10502 10505 10506 10506 10506 10509 10510 10508 10505 10505 10499 10495 10490 10486 10480 10475 10470 10464 10459 10453 10446 10440 10430 10420 10408 10395 10379 10362 10343 10322 10303 10284
10407 10418 10443 10445 10445 10453 10458 10466 10478 10479 10481 10481 10484 10484 10484 10485 10488 10490 10488 10486 10484 10479 10474 10470 10466 10461 10456 10449 10443 10438 10432 10426 10419 10410 10400 10387 10373 10358 10344 10323 10300 10282 10265
10393 10399 10416 10421 10426 10435 10445 10449 10458 10458 10462 10463 10463 10462 10464 10465 10467 10468 10468 10465 10462 10458 10454 10449 10446 10441 10435 10431 10425 10418 10412 10406 10397 10389 10378 10366 10351 10336 10322 10301 10280 10263 10249
10378 10383 10394 10398 10407 10417 10424 10430 10435 10437 10444 10436 10439 10443 10443 10444 10447 10447 10446 10442 10441 10436 10432 10430 10425 10420 10417 10411 10405 10399 10393 10385 10377 10367 10354 10343 10328 10313 10298 10280 10262 10246 10236
10365 10368 10371 10379 10389 10395 10400 10408 10411 10412 10413 10416 10419 10420 10422 10426 10426 10426 10422 10421 10418 10414 10411 10409 10404 10400 10396 10390 10385 10380 10374 10366 10357 10346 10334 10321 10308 10295 10276 10259 10245 10230 10223
10347 10351 10358 10361 10373 10376 10381 10379 10382 10386 10389 10392 10395 10397 10401 10404 10405 10402 10401 10398 10397 10393 10390 10389 10385 10380 10376 10372 10366 10361 10354 10345 10335 10323 10312 10300 10286 10273 10255 10237 10226 10216 10208
10325 10328 10335 10343 10353 10356 10356 10358 10361 10365 10368 10371 10373 10376 10380 10382 10382 10381 10380 10378 10376 10371 10371 10369 10365 10362 10358 10352 10347 10340 10332 10324 10312 10300 10289 10278 10266 10251 10235 10218 10207 10200 10194
10301 10305 10313 10324 10331 10334 10337 10341 10344 10346 10349 10352 10357 10359 10361 10361 10361 10362 10358 10356 10356 10353 10351 10349 10347 10342 10337 10332 10325 10318 10310 10300 10288 10278 10267 10255 10243 10231 10216 10201 10191 10185 10179
10283 10288 10295 10301 10308 10313 10317 10320 10324 10329 10333 10338 10340 10340 10341 10343 10343 10341 10336 10336 10337 10335 10334 10332 10327 10322 10316 10310 10303 10295 10286 10276 10266 10257 10245 10233 10220 10208 10198 10187 10177 10170 10166